{"data":{"norad_id":56811,"epoch":"2026-05-25T02:49:20.693568Z","epoch_age_seconds":65079,"freshness":"FRESH","line1":"1 56811U 23078AW  26145.11760062  .03503530  42988-5  60582-3 0  9991","line2":"2 56811  69.9877  78.4463 0014359 228.4841 131.5155 16.32356160165930","mean_motion":16.3235616,"eccentricity":0.0014359,"inclination_deg":69.9877,"raan_deg":78.4463,"arg_perigee_deg":228.4841,"mean_anomaly_deg":131.5155,"bstar":0.00060582,"rev_number":16593,"period_min":88.216042263718,"perigee_km":176.78972773317,"apogee_km":195.64123518943,"semimajor_km":6564.3524814613,"source":"CELESTRAK","updated_at":"2026-05-25T13:38:18.160399Z"}}